When you browse on this site, cookies collect data to enhance your experience and personalize the content and advertising you see.
Visit our Privacy Policy to learn more. By continuing to use the site, you agree to this use of cookies and data.
  • Em Portugal
  • Lista de países
  • Para 7 dias
  • Temperatura da água
  • Mapas de satélite
  • Mapa do tempo
  • Widgets de tempo
  • user-avatar
    Iniciar Sessão

    Previsão horária em Ameliowka

    Hoje, 18 Junho, Terça-feira

    Tempo Temperatura Precipitação Vento Pressão Humidade
    00:00 +16°C° 0 mm 2 m/s 738 mmHg 93%
    01:00 +15°C° 0 mm 2 m/s 738 mmHg 95%
    02:00 +15°C° 0 mm 2 m/s 737 mmHg 95%
    03:00 +15°C° 0 mm 2 m/s 737 mmHg 96%
    04:00 +15°C° 0 mm 2 m/s 737 mmHg 96%
    05:00 +16°C° 0 mm 2 m/s 737 mmHg 90%
    06:00 +18°C° 0 mm 2 m/s 738 mmHg 85%
    07:00 +19°C° 0 mm 2 m/s 738 mmHg 79%
    08:00 +20°C° 0 mm 3 m/s 738 mmHg 74%
    09:00 +22°C° 0 mm 3 m/s 738 mmHg 69%
    10:00 +24°C° 0 mm 3 m/s 738 mmHg 64%
    11:00 +24°C° 0 mm 3 m/s 737 mmHg 63%
    12:00 +25°C° 0 mm 3 m/s 737 mmHg 61%
    13:00 +25°C° 0 mm 4 m/s 737 mmHg 59%
    14:00 +25°C° 0 mm 4 m/s 736 mmHg 61%
    15:00 +25°C° 0 mm 4 m/s 736 mmHg 62%
    16:00 +25°C° 0 mm 4 m/s 736 mmHg 63%
    17:00 +24°C° 0 mm 3 m/s 736 mmHg 69%
    18:00 +22°C° 0 mm 3 m/s 735 mmHg 75%
    19:00 +21°C° 0 mm 3 m/s 735 mmHg 81%
    20:00 +20°C° 0 mm 3 m/s 735 mmHg 83%
    21:00 +20°C° 0 mm 3 m/s 735 mmHg 85%
    22:00 +19°C° 0 mm 3 m/s 735 mmHg 86%
    23:00 +19°C° 0 mm 3 m/s 735 mmHg 89%

    Amanhã, 19 Junho, Quarta-feira

    Tempo Temperatura Precipitação Vento Pressão Humidade
    00:00 +18°C° 0 mm 3 m/s 734 mmHg 92%
    01:00 +17°C° 0 mm 3 m/s 734 mmHg 95%
    02:00 +17°C° 0 mm 3 m/s 734 mmHg 95%
    03:00 +17°C° 0 mm 3 m/s 734 mmHg 95%
    04:00 +17°C° 0 mm 3 m/s 733 mmHg 95%
    05:00 +18°C° 0 mm 3 m/s 733 mmHg 92%
    06:00 +19°C° 0 mm 4 m/s 733 mmHg 88%
    07:00 +20°C° 0 mm 4 m/s 733 mmHg 85%
    08:00 +22°C° 0 mm 4 m/s 733 mmHg 80%
    09:00 +24°C° 0 mm 3 m/s 733 mmHg 76%
    10:00 +25°C° 0 mm 3 m/s 733 mmHg 72%
    11:00 +26°C° 0.7 mm 3 m/s 733 mmHg 71%
    12:00 +27°C° 0.7 mm 3 m/s 732 mmHg 70%
    13:00 +27°C° 0.7 mm 3 m/s 732 mmHg 69%
    14:00 +27°C° 1 mm 2 m/s 732 mmHg 66%
    15:00 +28°C° 1 mm 2 m/s 731 mmHg 63%
    16:00 +28°C° 1 mm 2 m/s 731 mmHg 61%
    17:00 +26°C° 0.8 mm 2 m/s 731 mmHg 68%
    18:00 +25°C° 0.8 mm 2 m/s 731 mmHg 75%
    19:00 +22°C° 0.8 mm 3 m/s 731 mmHg 83%
    20:00 +21°C° 0.2 mm 3 m/s 731 mmHg 86%
    21:00 +20°C° 0.2 mm 3 m/s 731 mmHg 88%
    22:00 +20°C° 0.2 mm 3 m/s 731 mmHg 91%
    23:00 +20°C° 0 mm 2 m/s 731 mmHg 90%

    Depois de amanhã, 20 Junho, Quinta-feira

    Tempo Temperatura Precipitação Vento Pressão Humidade
    00:00 +20°C° 0 mm 1 m/s 731 mmHg 89%
    01:00 +20°C° 0 mm 1 m/s 731 mmHg 89%
    02:00 +20°C° 0 mm 1 m/s 731 mmHg 89%
    03:00 +20°C° 0 mm 1 m/s 731 mmHg 90%
    04:00 +19°C° 0 mm 1 m/s 731 mmHg 90%
    05:00 +21°C° 0 mm 1 m/s 731 mmHg 85%
    06:00 +22°C° 0 mm 1 m/s 731 mmHg 81%
    07:00 +24°C° 0 mm 1 m/s 731 mmHg 76%
    08:00 +25°C° 0.3 mm 1 m/s 731 mmHg 72%
    09:00 +26°C° 0.3 mm 1 m/s 731 mmHg 69%
    10:00 +27°C° 0.3 mm 2 m/s 732 mmHg 65%
    11:00 +28°C° 0.2 mm 2 m/s 731 mmHg 60%
    12:00 +29°C° 0.2 mm 2 m/s 731 mmHg 56%
    13:00 +30°C° 0.2 mm 2 m/s 731 mmHg 51%
    14:00 +29°C° 0 mm 2 m/s 731 mmHg 51%
    15:00 +29°C° 0 mm 2 m/s 731 mmHg 51%
    16:00 +29°C° 0 mm 1 m/s 731 mmHg 51%
    17:00 +28°C° 0.1 mm 1 m/s 731 mmHg 58%
    18:00 +26°C° 0.1 mm 1 m/s 731 mmHg 66%
    19:00 +25°C° 0.1 mm 1 m/s 731 mmHg 73%
    20:00 +24°C° 0 mm 1 m/s 731 mmHg 76%
    21:00 +23°C° 0 mm 1 m/s 731 mmHg 78%
    22:00 +22°C° 0 mm 1 m/s 731 mmHg 81%
    23:00 +21°C° 0 mm 1 m/s 731 mmHg 82%

    21 Junho, Sexta-feira

    Tempo Temperatura Precipitação Vento Pressão Humidade
    00:00 +21°C° 0 mm 1 m/s 731 mmHg 83%
    01:00 +20°C° 0 mm 1 m/s 730 mmHg 84%
    02:00 +18°C° 0 mm 0 m/s 731 mmHg 86%
    03:00 +18°C° 0 mm 0 m/s 731 mmHg 87%
    04:00 +18°C° 0 mm 0 m/s 731 mmHg 89%
    05:00 +19°C° 0 mm 0 m/s 731 mmHg 83%
    06:00 +23°C° 0 mm 1 m/s 731 mmHg 77%
    07:00 +25°C° 0 mm 1 m/s 731 mmHg 71%
    08:00 +26°C° 0 mm 1 m/s 731 mmHg 66%
    09:00 +28°C° 0 mm 1 m/s 732 mmHg 61%
    10:00 +29°C° 0 mm 2 m/s 732 mmHg 56%
    11:00 +29°C° 1.5 mm 2 m/s 731 mmHg 56%
    12:00 +29°C° 1.5 mm 2 m/s 731 mmHg 55%
    13:00 +29°C° 1.5 mm 2 m/s 731 mmHg 55%
    14:00 +29°C° 0.8 mm 2 m/s 731 mmHg 61%
    15:00 +28°C° 0.8 mm 3 m/s 731 mmHg 66%
    16:00 +27°C° 0.8 mm 3 m/s 731 mmHg 72%
    17:00 +26°C° 0.5 mm 3 m/s 731 mmHg 77%
    18:00 +24°C° 0.5 mm 2 m/s 731 mmHg 82%
    19:00 +23°C° 0.5 mm 2 m/s 731 mmHg 87%
    20:00 +21°C° 0.2 mm 2 m/s 731 mmHg 90%
    21:00 +20°C° 0.2 mm 2 m/s 732 mmHg 93%
    22:00 +19°C° 0.2 mm 2 m/s 732 mmHg 95%
    23:00 +19°C° 0.7 mm 3 m/s 732 mmHg 96%

    22 Junho, Sábado

    Tempo Temperatura Precipitação Vento Pressão Humidade
    00:00 +19°C° 0.7 mm 3 m/s 733 mmHg 96%
    01:00 +19°C° 0.7 mm 3 m/s 733 mmHg 96%
    02:00 +19°C° 0.1 mm 3 m/s 733 mmHg 96%
    03:00 +18°C° 0.1 mm 3 m/s 733 mmHg 96%
    04:00 +18°C° 0.1 mm 4 m/s 734 mmHg 95%
    05:00 +18°C° 0 mm 4 m/s 734 mmHg 93%
    06:00 +18°C° 0 mm 3 m/s 734 mmHg 92%
    07:00 +18°C° 0 mm 3 m/s 735 mmHg 90%
    08:00 +19°C° 0 mm 3 m/s 735 mmHg 87%
    09:00 +19°C° 0 mm 3 m/s 735 mmHg 84%
    10:00 +20°C° 0 mm 3 m/s 736 mmHg 80%
    11:00 +20°C° 0 mm 3 m/s 736 mmHg 77%
    12:00 +21°C° 0 mm 3 m/s 736 mmHg 74%
    13:00 +22°C° 0 mm 3 m/s 736 mmHg 71%
    14:00 +22°C° 0.1 mm 4 m/s 736 mmHg 71%
    15:00 +22°C° 0.1 mm 4 m/s 736 mmHg 71%
    16:00 +22°C° 0.1 mm 4 m/s 736 mmHg 71%
    17:00 +21°C° 0.3 mm 3 m/s 736 mmHg 75%
    18:00 +21°C° 0.3 mm 3 m/s 736 mmHg 80%
    19:00 +20°C° 0.3 mm 2 m/s 736 mmHg 85%
    20:00 +19°C° 0 mm 2 m/s 736 mmHg 87%
    21:00 +18°C° 0 mm 2 m/s 736 mmHg 89%
    22:00 +17°C° 0 mm 2 m/s 736 mmHg 92%
    23:00 +17°C° 0 mm 2 m/s 736 mmHg 91%

    23 Junho, Domingo

    Tempo Temperatura Precipitação Vento Pressão Humidade
    00:00 +17°C° 0 mm 3 m/s 736 mmHg 91%
    01:00 +17°C° 0 mm 3 m/s 736 mmHg 91%
    02:00 +16°C° 0.1 mm 3 m/s 736 mmHg 91%
    03:00 +16°C° 0.1 mm 3 m/s 736 mmHg 91%
    04:00 +16°C° 0.1 mm 3 m/s 736 mmHg 91%
    05:00 +16°C° 0.1 mm 3 m/s 736 mmHg 89%
    06:00 +17°C° 0.1 mm 3 m/s 736 mmHg 88%
    07:00 +17°C° 0.1 mm 2 m/s 736 mmHg 86%
    08:00 +18°C° 0 mm 2 m/s 736 mmHg 82%
    09:00 +20°C° 0 mm 2 m/s 736 mmHg 77%
    10:00 +21°C° 0 mm 2 m/s 736 mmHg 72%
    11:00 +23°C° 0.1 mm 2 m/s 736 mmHg 67%
    12:00 +24°C° 0.1 mm 2 m/s 736 mmHg 62%
    13:00 +25°C° 0.1 mm 3 m/s 736 mmHg 57%
    14:00 +25°C° 0.1 mm 3 m/s 736 mmHg 58%
    15:00 +25°C° 0.1 mm 2 m/s 736 mmHg 59%
    16:00 +25°C° 0.1 mm 2 m/s 735 mmHg 60%
    17:00 +24°C° 0 mm 2 m/s 735 mmHg 66%
    18:00 +23°C° 0 mm 2 m/s 735 mmHg 72%
    19:00 +21°C° 0 mm 2 m/s 735 mmHg 78%
    20:00 +20°C° 0 mm 2 m/s 736 mmHg 81%
    21:00 +20°C° 0 mm 1 m/s 736 mmHg 84%
    22:00 +19°C° 0 mm 1 m/s 736 mmHg 87%
    23:00 +18°C° 0.2 mm 1 m/s 736 mmHg 89%
    Mostrar mais